Hourly Data Report for September 29, 2010

IQALUIT CLIMATE
NUNAVUT

63°44'50.000" N
68°32'40.000" W
33.50 m
2402592
71321
XFB

Download Data

Hourly Data (September 2010)
Hourly Data Report for September 29, 2010
TIME
LST
Temp Definition
°C
Dew Point Definition
°C
Rel Hum Definition
%
Precip. Amount Definition
mm

Wind Dir Definition
10's deg

Wind Spd Definition
km/h
Visibility Definition
km
Stn Press Definition
kPa
Hmdx Definition


Wind Chill Definition


Weather Definition


00:00 2.1 0.2 87   32 20   99.74     LegendNANA
01:00 1.9 0.7 92   32 13   99.81     LegendNANA
02:00 1.9 1.0 94   33 17   99.89     LegendNANA
03:00 2.0 1.1 94   32 22   99.97     LegendNANA
04:00 1.9 1.3 96   32 19   100.05     LegendNANA
05:00 1.8 1.5 98   32 13   100.12     LegendNANA
06:00 1.7 1.4 98   32 17   100.20     LegendNANA
07:00 1.8 1.8 100   32 19   100.28     LegendNANA
08:00 2.1 2.1 100   32 15   100.37     LegendNANA
09:00 3.1 2.7 97   32 17   100.39     LegendNANA
10:00 3.5 2.1 91   31 15   100.41     LegendNANA
11:00 4.0 1.8 86   34 13   100.41     LegendNANA
12:00 4.4 2.3 86   33 13   100.45     LegendNANA
13:00 4.0 2.1 87   31 11   100.49     LegendNANA
14:00 3.6 2.7 94   34 11   100.52     LegendNANA
15:00 2.9 2.7 99   32 11   100.57     LegendNANA
16:00 3.1 2.3 94   36 11   100.59     LegendNANA
17:00 2.7 1.9 94   1 13   100.65     LegendNANA
18:00 2.6 1.6 93   35 9   100.67     LegendNANA
19:00 2.5 1.5 93   36 7   100.70     LegendNANA
20:00 2.0 1.3 95   34 6   100.73     LegendNANA
21:00 2.0 1.2 94   32 6   100.72     LegendNANA
22:00 1.7 0.9 94   32 7   100.71     LegendNANA
23:00 0.8 0.5 98   33 7   100.71     LegendNANA

Notes on Data Quality.

Legend

  • E = Estimated
  • M = Missing
  • NA = Not Available*
  • [empty] = Indicates an unobserved value
Date modified: